User: anonymous   Login
Location: Hawaiian Village Mobile Home Park
(32.8359°N, 116.9792°W)
Time: 20:51:59
(UTC+00:00)
Language:

SL-19 R/B - Orbit

View from above orbital plane
View from above orbital plane
View from above satellite
View from above satellite

Ground track
Ground track

The orbit data is extracted from the following two-line orbital elements,

1 36589U 10023B   21295.48972236 -.00000046  00000-0  49588-5 0  9997
2 36589 100.5578 111.9646 0225686 150.6651 271.6902 13.58399354564990
Epoch (UTC): 22 October 2021 11:45:12
Eccentricity: 0.0225686
inclination: 100.5578°
perigee height: 874 km
apogee height: 1209 km
right ascension of ascending node: 111.9646°
argument of perigee: 150.6651°
revolutions per day: 13.58399354
mean anomaly at epoch: 271.6902°
orbit number at epoch: 56499

The dashed part of the orbit path shows where the satellite is in the earth's shadow,  

DLR